Time,TemperatureF,DewpointF,PressureIn,WindDirection,WindDirectionDegrees,WindSpeedMPH,WindSpeedGustMPH,Humidity,HourlyPrecipIn,Conditions,Clouds,dailyrainin,SoftwareType,DateUTC
2013-09-03 00:01:00,62.6,56.7,29.04,WSW,241,3.6,5.4,81,0.00,,SCT050,0.24,VWS V14.01,2013-09-03 04:01:00,
2013-09-03 00:02:00,62.6,56.7,29.04,SSW,205,4.5,5.4,81,0.00,,SCT050,0.24,VWS V14.01,2013-09-03 04:02:00,
2013-09-03 00:03:00,62.6,56.7,29.04,WSW,251,3.6,4.9,81,0.00,,SCT050,0.00,VWS V14.01,2013-09-03 04:03:00,
2013-09-03 00:04:00,62.6,56.3,29.04,SW,223,5.4,5.4,80,0.00,,SCT050,0.00,VWS V14.01,2013-09-03 04:04:00,
2013-09-03 00:05:00,62.6,56.3,29.04,SSW,208,4.0,6.3,80,0.00,,SCT050,0.00,VWS V14.01,2013-09-03 04:05:00,
2013-09-03 00:09:00,62.4,56.5,29.04,WNW,288,0.0,6.3,81,0.00,,SCT050,0.00,VWS V14.01,2013-09-03 04:09:00,
2013-09-03 00:14:00,62.4,56.2,29.04,WSW,254,2.7,5.4,80,0.00,,SCT050,0.00,VWS V14.01,2013-09-03 04:14:00,
2013-09-03 00:19:00,62.4,56.5,29.04,South,188,0.0,3.6,81,0.00,,SCT050,0.00,VWS V14.01,2013-09-03 04:19:00,
2013-09-03 00:24:00,62.6,56.3,29.01,SSW,206,4.0,4.9,80,0.00,,SCT050,0.00,VWS V14.01,2013-09-03 04:24:00,
2013-09-03 00:29:00,62.6,56.3,29.01,WSW,241,3.6,5.8,80,0.00,,SCT050,0.00,VWS V14.01,2013-09-03 04:29:00,
2013-09-03 00:34:00,62.6,56.3,29.01,SW,220,2.2,4.0,80,0.00,,BKN038,0.00,VWS V14.01,2013-09-03 04:34:00,
2013-09-03 00:39:00,62.6,56.3,29.04,SSW,213,5.4,5.4,80,0.00,,BKN038,0.00,VWS V14.01,2013-09-03 04:39:00,
2013-09-03 00:44:00,62.6,56.7,29.04,SW,229,4.0,5.4,81,0.00,,BKN038,0.00,VWS V14.01,2013-09-03 04:44:00,
2013-09-03 00:49:00,62.6,56.7,29.04,SW,234,3.6,6.3,81,0.00,,BKN038,0.00,VWS V14.01,2013-09-03 04:49:00,
2013-09-03 00:54:00,62.6,56.7,29.04,SW,227,4.0,4.9,81,0.00,,BKN038,0.00,VWS V14.01,2013-09-03 04:54:00,
2013-09-03 00:59:00,62.6,56.7,29.04,SW,219,2.7,5.8,81,0.00,,BKN038,0.00,VWS V14.01,2013-09-03 04:59:00,
2013-09-03 01:04:00,62.6,56.7,29.04,SW,229,3.6,4.9,81,0.00,,BKN038,0.00,VWS V14.01,2013-09-03 05:04:00,
2013-09-03 01:10:00,62.4,56.5,29.04,WSW,244,5.4,5.8,81,0.00,,BKN038,0.00,VWS V14.01,2013-09-03 05:10:00,
2013-09-03 01:15:00,62.4,56.5,29.04,SW,232,2.2,5.4,81,0.00,,BKN038,0.00,VWS V14.01,2013-09-03 05:15:00,
2013-09-03 01:20:00,62.2,56.0,29.04,WSW,244,0.0,4.0,80,0.00,,BKN038,0.00,VWS V14.01,2013-09-03 05:20:00,
2013-09-03 01:25:00,62.2,56.0,29.04,SSW,203,0.0,7.2,80,0.00,,BKN038,0.00,VWS V14.01,2013-09-03 05:25:00,
2013-09-03 01:30:00,62.2,56.3,29.04,SW,236,3.1,4.9,81,0.00,,BKN038,0.00,VWS V14.01,2013-09-03 05:30:00,
2013-09-03 01:35:00,62.2,56.3,29.04,NW,305,5.8,5.8,81,0.00,,BKN037,0.00,VWS V14.01,2013-09-03 05:35:00,
2013-09-03 01:40:00,62.2,56.0,29.04,WSW,250,2.7,3.1,80,0.00,,BKN037,0.00,VWS V14.01,2013-09-03 05:40:00,
2013-09-03 01:45:00,62.2,56.0,29.04,WNW,296,6.3,6.3,80,0.00,,BKN037,0.00,VWS V14.01,2013-09-03 05:45:00,
2013-09-03 01:50:00,62.2,56.0,29.04,WSW,247,0.0,3.1,80,0.00,,BKN037,0.00,VWS V14.01,2013-09-03 05:50:00,
2013-09-03 01:55:00,62.2,56.0,29.01,SSW,207,0.0,5.4,80,0.00,,BKN037,0.00,VWS V14.01,2013-09-03 05:55:00,
2013-09-03 02:00:00,62.1,56.2,29.01,SW,234,3.1,3.1,81,0.00,,BKN037,0.00,VWS V14.01,2013-09-03 06:00:00,
2013-09-03 02:05:00,62.2,56.3,29.01,SSW,207,3.6,3.6,81,0.00,,BKN037,0.00,VWS V14.01,2013-09-03 06:05:00,
2013-09-03 02:10:00,62.2,56.3,29.01,SW,231,0.0,2.7,81,0.00,,BKN037,0.00,VWS V14.01,2013-09-03 06:10:00,
2013-09-03 02:15:00,61.9,56.0,29.01,West,265,0.0,2.7,81,0.00,,BKN037,0.00,VWS V14.01,2013-09-03 06:15:00,
2013-09-03 02:20:00,62.2,56.7,29.01,SW,216,3.6,4.0,82,0.00,,BKN037,0.00,VWS V14.01,2013-09-03 06:20:00,
2013-09-03 02:25:00,62.2,56.3,29.01,WNW,288,3.1,3.1,81,0.00,,BKN037,0.00,VWS V14.01,2013-09-03 06:25:00,
2013-09-03 02:30:00,62.1,56.2,29.01,SSW,194,3.1,4.9,81,0.00,,BKN037,0.00,VWS V14.01,2013-09-03 06:30:00,
2013-09-03 02:35:00,62.1,56.2,29.01,WNW,285,2.7,4.9,81,0.00,,OVC046,0.00,VWS V14.01,2013-09-03 06:35:00,
2013-09-03 02:40:00,61.7,55.8,29.01,West,280,2.7,4.0,81,0.00,,OVC046,0.00,VWS V14.01,2013-09-03 06:40:00,
2013-09-03 02:45:00,61.7,55.8,29.01,NW,309,3.6,4.9,81,0.00,,OVC046,0.00,VWS V14.01,2013-09-03 06:45:00,
2013-09-03 02:50:00,61.7,55.8,29.01,West,269,3.6,6.3,81,0.00,,OVC046,0.00,VWS V14.01,2013-09-03 06:50:00,
2013-09-03 02:55:00,61.5,56.0,29.01,WNW,288,3.6,5.8,82,0.00,,OVC046,0.00,VWS V14.01,2013-09-03 06:55:00,
2013-09-03 03:00:00,61.7,56.2,29.01,WSW,252,3.6,3.6,82,0.00,,OVC046,0.00,VWS V14.01,2013-09-03 07:00:00,
2013-09-03 03:05:00,61.7,56.5,29.01,SSW,212,2.7,3.6,83,0.00,,OVC046,0.00,VWS V14.01,2013-09-03 07:05:00,
2013-09-03 03:10:00,61.7,56.5,29.01,WSW,237,0.0,3.1,83,0.00,,OVC046,0.00,VWS V14.01,2013-09-03 07:10:00,
2013-09-03 03:15:00,61.7,56.5,29.01,WNW,284,0.0,4.0,83,0.00,,OVC046,0.00,VWS V14.01,2013-09-03 07:15:00,
2013-09-03 03:20:00,61.7,56.5,29.01,West,278,0.0,0.0,83,0.00,,OVC046,0.00,VWS V14.01,2013-09-03 07:20:00,
2013-09-03 03:25:00,61.7,56.5,29.01,WSW,245,3.6,5.4,83,0.00,,OVC046,0.00,VWS V14.01,2013-09-03 07:25:00,
2013-09-03 03:30:00,61.9,57.0,29.01,SW,221,2.7,5.4,84,0.00,,OVC046,0.00,VWS V14.01,2013-09-03 07:30:00,
2013-09-03 03:35:00,61.7,56.8,29.01,SSW,205,4.0,4.0,84,0.00,,OVC043,0.00,VWS V14.01,2013-09-03 07:35:00,
2013-09-03 03:40:00,61.5,56.7,29.01,SW,223,6.3,6.3,84,0.00,,OVC043,0.00,VWS V14.01,2013-09-03 07:40:00,
2013-09-03 03:45:00,61.5,56.7,29.01,SW,220,0.0,3.6,84,0.00,,OVC043,0.00,VWS V14.01,2013-09-03 07:45:00,
2013-09-03 03:50:00,61.3,56.5,29.01,SW,219,2.7,2.7,84,0.00,,OVC043,0.00,VWS V14.01,2013-09-03 07:50:00,
2013-09-03 03:55:00,61.0,56.1,29.01,SW,219,0.0,3.6,84,0.00,,OVC043,0.00,VWS V14.01,2013-09-03 07:55:00,
2013-09-03 04:00:00,60.8,55.6,29.01,West,259,0.0,3.1,83,0.00,,OVC043,0.00,VWS V14.01,2013-09-03 08:00:00,
2013-09-03 04:05:00,60.8,55.9,29.01,SSW,192,2.7,4.0,84,0.00,,OVC043,0.00,VWS V14.01,2013-09-03 08:05:00,
2013-09-03 04:10:00,60.8,56.3,29.01,SW,222,3.6,5.4,85,0.00,,OVC043,0.00,VWS V14.01,2013-09-03 08:10:00,
2013-09-03 04:15:00,61.0,56.5,29.01,SW,220,2.7,3.6,85,0.00,,OVC043,0.00,VWS V14.01,2013-09-03 08:15:00,
2013-09-03 04:20:00,61.0,56.5,29.01,West,273,5.4,5.4,85,0.00,,OVC043,0.00,VWS V14.01,2013-09-03 08:20:00,
2013-09-03 04:25:00,61.0,56.5,29.04,WSW,243,3.6,4.9,85,0.00,,OVC043,0.00,VWS V14.01,2013-09-03 08:25:00,
2013-09-03 04:31:00,60.8,56.3,29.04,WSW,241,7.6,7.6,85,0.00,,OVC043,0.00,VWS V14.01,2013-09-03 08:31:00,
2013-09-03 04:36:00,60.6,56.1,29.04,SW,236,3.6,8.1,85,0.00,,OVC043,0.00,VWS V14.01,2013-09-03 08:36:00,
2013-09-03 04:41:00,60.6,56.1,29.04,SW,215,4.0,7.6,85,0.00,,OVC043,0.00,VWS V14.01,2013-09-03 08:41:00,
2013-09-03 04:46:00,60.8,56.3,29.04,SW,231,6.3,6.3,85,0.00,,OVC043,0.00,VWS V14.01,2013-09-03 08:46:00,
2013-09-03 04:51:00,60.8,56.6,29.04,WSW,255,3.6,4.9,86,0.00,,OVC043,0.00,VWS V14.01,2013-09-03 08:51:00,
2013-09-03 04:56:00,61.0,56.8,29.04,SW,230,0.0,4.0,86,0.00,,OVC043,0.00,VWS V14.01,2013-09-03 08:56:00,
2013-09-03 05:01:00,60.6,56.4,29.04,West,281,0.0,5.8,86,0.00,,OVC043,0.00,VWS V14.01,2013-09-03 09:01:00,
2013-09-03 05:06:00,60.6,56.4,29.04,SW,230,0.0,6.3,86,0.00,,OVC043,0.00,VWS V14.01,2013-09-03 09:06:00,
2013-09-03 05:11:00,60.8,56.3,29.04,West,266,4.9,5.8,85,0.00,,OVC043,0.00,VWS V14.01,2013-09-03 09:11:00,
2013-09-03 05:16:00,60.8,56.3,29.04,SSW,210,3.6,6.7,85,0.00,,OVC043,0.00,VWS V14.01,2013-09-03 09:16:00,
2013-09-03 05:21:00,60.8,56.3,29.04,WSW,237,0.0,0.0,85,0.00,,OVC043,0.00,VWS V14.01,2013-09-03 09:21:00,
2013-09-03 05:26:00,60.6,56.1,29.04,SW,229,3.1,6.3,85,0.00,,OVC043,0.00,VWS V14.01,2013-09-03 09:26:00,
2013-09-03 05:31:00,60.8,55.9,29.04,SW,227,0.0,3.6,84,0.00,,OVC043,0.00,VWS V14.01,2013-09-03 09:31:00,
2013-09-03 05:36:00,61.0,56.1,29.04,North,353,3.1,4.9,84,0.00,,OVC049,0.00,VWS V14.01,2013-09-03 09:36:00,
2013-09-03 05:41:00,60.6,55.8,29.01,NNW,338,5.8,5.8,84,0.00,,OVC049,0.00,VWS V14.01,2013-09-03 09:41:00,
2013-09-03 05:46:00,60.6,56.1,29.01,WSW,247,0.0,4.0,85,0.00,,OVC049,0.00,VWS V14.01,2013-09-03 09:46:00,
2013-09-03 05:52:00,60.6,56.1,29.01,SW,235,4.0,4.0,85,0.00,,OVC049,0.00,VWS V14.01,2013-09-03 09:52:00,
2013-09-03 05:57:00,60.6,56.1,29.04,SW,229,0.0,5.4,85,0.00,,OVC049,0.00,VWS V14.01,2013-09-03 09:57:00,
2013-09-03 06:02:00,60.6,56.1,29.04,SW,231,3.6,4.9,85,0.00,,OVC049,0.00,VWS V14.01,2013-09-03 10:02:00,
2013-09-03 06:07:00,60.8,56.3,29.04,WSW,248,0.0,5.8,85,0.00,,OVC049,0.00,VWS V14.01,2013-09-03 10:07:00,
2013-09-03 06:12:00,60.4,55.3,29.04,WSW,257,2.2,5.4,83,0.00,,OVC049,0.00,VWS V14.01,2013-09-03 10:12:00,
2013-09-03 06:17:00,60.6,55.8,29.04,SSW,204,0.0,5.4,84,0.00,,OVC049,0.00,VWS V14.01,2013-09-03 10:17:00,
2013-09-03 06:22:00,60.6,55.8,29.04,SSW,212,3.6,8.3,84,0.00,,OVC049,0.00,VWS V14.01,2013-09-03 10:22:00,
2013-09-03 06:27:00,60.4,55.3,29.04,SW,231,3.6,7.6,83,0.00,,OVC049,0.00,VWS V14.01,2013-09-03 10:27:00,
2013-09-03 06:32:00,60.4,55.3,29.04,SW,236,4.0,7.6,83,0.00,,OVC049,0.00,VWS V14.01,2013-09-03 10:32:00,
2013-09-03 06:37:00,60.4,55.3,29.04,WSW,238,5.8,8.7,83,0.00,,OVC047,0.00,VWS V14.01,2013-09-03 10:37:00,
2013-09-03 06:42:00,60.4,54.9,29.04,SW,225,4.0,8.1,82,0.00,,OVC047,0.00,VWS V14.01,2013-09-03 10:42:00,
2013-09-03 06:47:00,60.4,55.3,29.04,WSW,245,5.4,6.3,83,0.00,,OVC047,0.00,VWS V14.01,2013-09-03 10:47:00,
2013-09-03 06:52:00,60.4,55.3,29.04,SW,217,3.1,8.7,83,0.00,,OVC047,0.00,VWS V14.01,2013-09-03 10:52:00,
2013-09-03 06:57:00,60.3,54.8,29.04,South,170,3.1,6.3,82,0.00,,OVC047,0.00,VWS V14.01,2013-09-03 10:57:00,
2013-09-03 07:02:00,60.3,54.8,29.04,SW,223,3.6,7.6,82,0.00,,OVC047,0.00,VWS V14.01,2013-09-03 11:02:00,
2013-09-03 07:07:00,60.3,54.8,29.04,SSW,202,4.0,5.4,82,0.00,,OVC047,0.00,VWS V14.01,2013-09-03 11:07:00,
2013-09-03 07:12:00,60.3,54.8,29.04,SSW,213,3.1,5.4,82,0.00,,OVC047,0.00,VWS V14.01,2013-09-03 11:12:00,
2013-09-03 07:17:00,60.3,54.8,29.04,WSW,240,5.4,8.7,82,0.00,,OVC047,0.00,VWS V14.01,2013-09-03 11:17:00,
2013-09-03 07:22:00,60.1,54.2,29.04,WSW,257,4.0,6.3,81,0.00,,OVC047,0.00,VWS V14.01,2013-09-03 11:22:00,
2013-09-03 07:28:00,60.4,54.9,29.04,WSW,249,4.0,4.5,82,0.00,,OVC047,0.00,VWS V14.01,2013-09-03 11:28:00,
2013-09-03 07:33:00,60.3,54.8,29.04,West,268,2.7,4.0,82,0.00,,OVC047,0.00,VWS V14.01,2013-09-03 11:33:00,
2013-09-03 07:38:00,60.1,54.2,29.04,SW,234,6.3,6.3,81,0.00,,BKN047,0.00,VWS V14.01,2013-09-03 11:38:00,
2013-09-03 07:43:00,60.3,54.4,29.04,SW,222,5.8,5.8,81,0.00,,BKN047,0.00,VWS V14.01,2013-09-03 11:43:00,
2013-09-03 07:48:00,60.4,54.6,29.04,SSW,213,3.1,6.3,81,0.00,,BKN047,0.00,VWS V14.01,2013-09-03 11:48:00,
2013-09-03 07:53:00,60.4,54.6,29.04,South,179,4.5,4.5,81,0.00,,BKN047,0.00,VWS V14.01,2013-09-03 11:53:00,
2013-09-03 07:58:00,60.4,54.6,29.04,SSW,212,4.0,5.8,81,0.00,,BKN047,0.00,VWS V14.01,2013-09-03 11:58:00,
2013-09-03 08:03:00,60.3,54.4,29.04,SW,219,5.8,5.8,81,0.00,,BKN047,0.00,VWS V14.01,2013-09-03 12:03:00,
2013-09-03 08:08:00,60.6,54.8,29.07,West,263,5.8,5.8,81,0.00,,BKN047,0.00,VWS V14.01,2013-09-03 12:08:00,
2013-09-03 08:13:00,60.4,54.2,29.07,West,260,8.1,8.1,80,0.00,,BKN047,0.00,VWS V14.01,2013-09-03 12:13:00,
2013-09-03 08:18:00,60.6,54.8,29.07,SW,225,5.8,5.8,81,0.00,,BKN047,0.00,VWS V14.01,2013-09-03 12:18:00,
2013-09-03 08:23:00,60.6,54.8,29.07,West,262,8.1,8.1,81,0.00,,BKN047,0.00,VWS V14.01,2013-09-03 12:23:00,
2013-09-03 08:28:00,60.6,54.4,29.07,SSW,212,6.3,6.3,80,0.00,,BKN047,0.00,VWS V14.01,2013-09-03 12:28:00,
2013-09-03 08:33:00,60.8,54.3,29.07,SW,220,3.6,6.3,79,0.00,,BKN047,0.00,VWS V14.01,2013-09-03 12:33:00,
2013-09-03 08:38:00,61.0,54.8,29.07,WSW,238,10.5,10.5,80,0.00,,BKN047,0.00,VWS V14.01,2013-09-03 12:38:00,
2013-09-03 08:43:00,61.0,54.1,29.07,SW,224,6.3,6.3,78,0.00,,BKN047,0.00,VWS V14.01,2013-09-03 12:43:00,
2013-09-03 08:48:00,61.0,54.1,29.07,SW,225,3.1,5.4,78,0.00,,BKN047,0.00,VWS V14.01,2013-09-03 12:48:00,
2013-09-03 08:53:00,61.0,53.7,29.07,NW,322,3.1,4.9,77,0.00,,BKN047,0.00,VWS V14.01,2013-09-03 12:53:00,
2013-09-03 08:58:00,61.2,54.3,29.07,WSW,239,7.6,7.6,78,0.00,,BKN047,0.00,VWS V14.01,2013-09-03 12:58:00,
2013-09-03 09:03:00,61.3,54.1,29.07,West,272,12.3,12.3,77,0.00,,BKN047,0.00,VWS V14.01,2013-09-03 13:03:00,
2013-09-03 09:08:00,61.5,54.6,29.07,SSW,205,7.6,8.1,78,0.00,,BKN047,0.00,VWS V14.01,2013-09-03 13:08:00,
2013-09-03 09:13:00,61.7,54.4,29.07,WSW,246,6.3,8.3,77,0.00,,BKN047,0.00,VWS V14.01,2013-09-03 13:13:00,
2013-09-03 09:18:00,61.7,54.4,29.07,WSW,256,5.8,6.3,77,0.00,,BKN047,0.00,VWS V14.01,2013-09-03 13:18:00,
2013-09-03 09:23:00,61.9,54.2,29.07,SW,226,8.1,12.8,76,0.00,,BKN047,0.00,VWS V14.01,2013-09-03 13:23:00,
2013-09-03 09:28:00,61.9,54.2,29.07,WSW,244,3.1,7.6,76,0.00,,BKN047,0.00,VWS V14.01,2013-09-03 13:28:00,
2013-09-03 09:33:00,61.7,53.7,29.07,West,281,8.7,8.7,75,0.00,,BKN050,0.00,VWS V14.01,2013-09-03 13:33:00,
2013-09-03 09:38:00,61.9,54.2,29.07,WSW,257,7.6,7.6,76,0.00,,BKN050,0.00,VWS V14.01,2013-09-03 13:38:00,
2013-09-03 09:43:00,61.9,54.6,29.07,SSW,203,2.7,5.8,77,0.00,,BKN050,0.00,VWS V14.01,2013-09-03 13:43:00,
2013-09-03 09:48:00,62.1,54.8,29.07,NNE,21,2.2,2.7,77,0.00,,BKN050,0.00,VWS V14.01,2013-09-03 13:48:00,
2013-09-03 09:53:00,61.9,53.5,29.07,NW,312,11.0,11.0,74,0.00,,BKN050,0.00,VWS V14.01,2013-09-03 13:53:00,
2013-09-03 10:05:00,62.2,55.0,29.07,North,349,5.8,5.8,77,0.00,,BKN050,0.00,VWS V14.01,2013-09-03 14:05:00,
2013-09-03 10:10:00,62.2,55.0,29.07,North,353,0.0,8.1,77,0.00,,BKN050,0.00,VWS V14.01,2013-09-03 14:10:00,
2013-09-03 10:15:00,62.4,55.1,29.07,West,271,6.3,10.1,77,0.00,,BKN050,0.00,VWS V14.01,2013-09-03 14:15:00,
2013-09-03 10:20:00,62.1,54.4,29.07,WNW,287,5.4,5.8,76,0.00,,BKN050,0.00,VWS V14.01,2013-09-03 14:20:00,
2013-09-03 10:25:00,62.2,54.6,29.07,WSW,254,5.4,5.4,76,0.00,,BKN050,0.00,VWS V14.01,2013-09-03 14:25:00,
2013-09-03 10:30:00,62.6,54.9,29.07,WSW,255,3.6,4.9,76,0.00,,BKN050,0.00,VWS V14.01,2013-09-03 14:30:00,
2013-09-03 10:35:00,62.6,55.7,29.07,SSW,211,4.0,5.8,78,0.00,,BKN050,0.00,VWS V14.01,2013-09-03 14:35:00,
2013-09-03 10:40:00,62.6,55.7,29.07,SSE,168,3.6,5.4,78,0.00,,BKN050,0.00,VWS V14.01,2013-09-03 14:40:00,
2013-09-03 10:45:00,63.0,56.0,29.07,West,279,5.4,5.4,78,0.00,,BKN050,0.00,VWS V14.01,2013-09-03 14:45:00,
2013-09-03 10:50:00,63.1,55.8,29.07,WSW,255,4.9,5.8,77,0.00,,BKN050,0.00,VWS V14.01,2013-09-03 14:50:00,
2013-09-03 10:55:00,63.3,56.0,29.10,WNW,284,8.1,8.1,77,0.00,,BKN050,0.00,VWS V14.01,2013-09-03 14:55:00,
2013-09-03 11:00:00,63.5,55.4,29.10,SSW,202,9.6,10.1,75,0.00,,BKN048,0.00,VWS V14.01,2013-09-03 15:00:00,
2013-09-03 11:05:00,63.9,56.2,29.10,SSW,210,5.8,6.3,76,0.00,,BKN048,0.00,VWS V14.01,2013-09-03 15:05:00,
2013-09-03 11:10:00,64.2,56.1,29.07,SSW,196,3.6,3.6,75,0.00,,BKN048,0.00,VWS V14.01,2013-09-03 15:10:00,
2013-09-03 11:15:00,64.4,55.6,29.07,WSW,254,3.1,4.9,73,0.00,,BKN048,0.00,VWS V14.01,2013-09-03 15:15:00,
2013-09-03 11:20:00,64.6,55.7,29.07,WNW,288,8.7,8.7,73,0.00,,BKN048,0.00,VWS V14.01,2013-09-03 15:20:00,
2013-09-03 11:25:00,64.4,54.8,29.07,NW,305,8.7,11.0,71,0.00,,BKN048,0.00,VWS V14.01,2013-09-03 15:25:00,
2013-09-03 11:30:00,64.6,55.0,29.07,NNE,29,5.8,11.0,71,0.00,,BKN048,0.00,VWS V14.01,2013-09-03 15:30:00,
2013-09-03 11:35:00,64.6,55.4,29.07,West,271,8.3,8.3,72,0.00,,OVC044,0.00,VWS V14.01,2013-09-03 15:35:00,
2013-09-03 11:40:00,64.4,54.4,29.07,SW,233,4.0,12.3,70,0.00,,OVC044,0.00,VWS V14.01,2013-09-03 15:40:00,
2013-09-03 11:46:00,64.4,54.4,29.07,West,262,10.1,10.1,70,0.00,,OVC044,0.00,VWS V14.01,2013-09-03 15:46:00,
2013-09-03 11:51:00,64.8,55.2,29.07,SSW,209,6.7,6.7,71,0.00,,OVC044,0.00,VWS V14.01,2013-09-03 15:51:00,
2013-09-03 11:56:00,64.9,54.9,29.07,SW,229,4.9,10.5,70,0.00,,OVC044,0.00,VWS V14.01,2013-09-03 15:56:00,
2013-09-03 12:01:00,64.8,54.4,29.07,WNW,292,8.1,10.5,69,0.00,,OVC044,0.00,VWS V14.01,2013-09-03 16:01:00,
2013-09-03 12:06:00,64.9,54.5,29.07,NNW,334,5.4,10.1,69,0.00,,OVC044,0.00,VWS V14.01,2013-09-03 16:06:00,
2013-09-03 12:11:00,64.8,53.2,29.07,West,274,11.4,12.8,66,0.00,,OVC044,0.00,VWS V14.01,2013-09-03 16:11:00,
2013-09-03 12:16:00,64.8,54.0,29.07,SSW,212,10.1,10.1,68,0.00,,OVC044,0.00,VWS V14.01,2013-09-03 16:16:00,
2013-09-03 12:21:00,64.6,53.8,29.07,WSW,243,4.0,7.2,68,0.00,,OVC044,0.00,VWS V14.01,2013-09-03 16:21:00,
2013-09-03 12:26:00,64.2,53.8,29.07,WSW,255,4.0,7.6,69,0.00,,OVC044,0.00,VWS V14.01,2013-09-03 16:26:00,
2013-09-03 12:31:00,64.0,53.3,29.07,SW,230,8.3,10.1,68,0.00,,OVC044,0.00,VWS V14.01,2013-09-03 16:31:00,
2013-09-03 12:36:00,64.2,54.2,29.07,WSW,251,5.8,11.0,70,0.00,,OVC043,0.00,VWS V14.01,2013-09-03 16:36:00,
2013-09-03 12:41:00,64.2,54.2,29.10,WSW,256,6.3,6.3,70,0.00,,OVC043,0.00,VWS V14.01,2013-09-03 16:41:00,
2013-09-03 12:46:00,63.9,53.9,29.10,South,173,5.4,10.1,70,0.00,,OVC043,0.00,VWS V14.01,2013-09-03 16:46:00,
2013-09-03 12:51:00,63.7,54.1,29.10,WNW,289,4.0,6.3,71,0.00,,OVC043,0.00,VWS V14.01,2013-09-03 16:51:00,
2013-09-03 12:56:00,63.3,53.8,29.07,WSW,239,7.6,8.7,71,0.00,,OVC043,0.00,VWS V14.01,2013-09-03 16:56:00,
2013-09-03 13:01:00,63.1,54.0,29.07,West,261,3.1,8.7,72,0.00,,OVC043,0.00,VWS V14.01,2013-09-03 17:01:00,
2013-09-03 13:06:00,63.0,54.2,29.07,NNW,339,4.9,8.1,73,0.00,,OVC043,0.00,VWS V14.01,2013-09-03 17:06:00,
2013-09-03 13:11:00,63.1,54.7,29.10,West,274,6.3,6.3,74,0.00,,OVC043,0.00,VWS V14.01,2013-09-03 17:11:00,
2013-09-03 13:16:00,63.3,55.3,29.10,West,278,5.8,6.3,75,0.00,,OVC043,0.00,VWS V14.01,2013-09-03 17:16:00,
2013-09-03 13:21:00,64.0,56.0,29.10,WSW,255,3.6,8.7,75,0.00,,OVC043,0.00,VWS V14.01,2013-09-03 17:21:00,
2013-09-03 13:26:00,64.0,55.6,29.10,WSW,250,3.1,6.3,74,0.00,,OVC043,0.00,VWS V14.01,2013-09-03 17:26:00,
2013-09-03 13:31:00,63.9,55.0,29.10,WNW,299,6.7,8.3,73,0.00,,OVC043,0.00,VWS V14.01,2013-09-03 17:31:00,
2013-09-03 13:36:00,63.9,55.0,29.10,SW,236,6.3,9.6,73,0.00,,-RA,0.00,VWS V14.01,2013-09-03 17:36:00,
2013-09-03 13:41:00,63.5,54.7,29.07,SSE,148,8.1,8.7,73,0.00,,-RA,0.00,VWS V14.01,2013-09-03 17:41:00,
2013-09-03 13:46:00,63.7,54.9,29.07,WSW,256,8.7,8.7,73,0.00,,-RA,0.00,VWS V14.01,2013-09-03 17:46:00,
2013-09-03 13:51:00,64.2,55.8,29.07,WNW,303,11.0,11.0,74,0.00,,-RA,0.00,VWS V14.01,2013-09-03 17:51:00,
2013-09-03 13:56:00,64.4,55.9,29.10,SW,216,2.7,8.1,74,0.00,,-RA,0.00,VWS V14.01,2013-09-03 17:56:00,
2013-09-03 14:01:00,64.6,55.7,29.10,WSW,256,6.3,8.1,73,0.00,,-RA,0.00,VWS V14.01,2013-09-03 18:01:00,
2013-09-03 14:06:00,64.4,55.2,29.10,WSW,244,12.3,13.2,72,0.00,,OVC038,0.00,VWS V14.01,2013-09-03 18:06:00,
2013-09-03 14:11:00,64.6,55.4,29.10,NNW,336,3.1,8.3,72,0.00,,OVC038,0.00,VWS V14.01,2013-09-03 18:11:00,
2013-09-03 14:16:00,64.8,55.5,29.10,NNW,344,8.3,8.3,72,0.00,,OVC038,0.00,VWS V14.01,2013-09-03 18:16:00,
2013-09-03 14:21:00,65.3,56.4,29.10,WSW,241,2.7,7.6,73,0.00,,OVC038,0.00,VWS V14.01,2013-09-03 18:21:00,
2013-09-03 14:26:00,65.1,55.5,29.07,NNE,20,2.7,6.3,71,0.00,,OVC038,0.00,VWS V14.01,2013-09-03 18:26:00,
2013-09-03 14:31:00,65.7,56.0,29.07,WNW,287,8.1,8.3,71,0.00,,OVC038,0.00,VWS V14.01,2013-09-03 18:31:00,
2013-09-03 14:36:00,65.5,55.5,29.07,West,267,3.1,11.0,70,0.00,,OVC041,0.00,VWS V14.01,2013-09-03 18:36:00,
2013-09-03 14:41:00,64.9,54.9,29.10,SSW,210,3.1,10.5,70,0.00,,OVC041,0.00,VWS V14.01,2013-09-03 18:41:00,
2013-09-03 14:46:00,64.9,55.3,29.10,NNW,342,5.8,10.5,71,0.00,,OVC041,0.00,VWS V14.01,2013-09-03 18:46:00,
2013-09-03 14:51:00,65.3,56.0,29.10,NW,306,2.2,9.6,72,0.00,,OVC041,0.00,VWS V14.01,2013-09-03 18:51:00,
2013-09-03 14:56:00,66.2,57.3,29.07,SW,231,3.6,7.6,73,0.00,,OVC041,0.00,VWS V14.01,2013-09-03 18:56:00,
2013-09-03 15:01:00,66.0,56.4,29.07,NNW,341,3.6,9.6,71,0.00,,OVC041,0.00,VWS V14.01,2013-09-03 19:01:00,
2013-09-03 15:06:00,66.0,56.0,29.07,WSW,251,5.4,10.5,70,0.00,,OVC041,0.00,VWS V14.01,2013-09-03 19:06:00,
2013-09-03 15:11:00,66.2,56.1,29.07,WSW,248,2.7,12.3,70,0.00,,OVC041,0.00,VWS V14.01,2013-09-03 19:11:00,
2013-09-03 15:16:00,66.4,55.1,29.07,West,280,11.0,15.0,67,0.00,,OVC041,0.00,VWS V14.01,2013-09-03 19:16:00,
2013-09-03 15:21:00,66.6,55.7,29.07,SW,215,7.6,10.1,68,0.00,,OVC041,0.00,VWS V14.01,2013-09-03 19:21:00,
2013-09-03 15:26:00,66.2,54.5,29.07,SSW,200,5.8,10.5,66,0.00,,OVC041,0.00,VWS V14.01,2013-09-03 19:26:00,
2013-09-03 15:32:00,66.4,55.5,29.07,SSW,193,6.3,8.1,68,0.00,,OVC041,0.00,VWS V14.01,2013-09-03 19:32:00,
2013-09-03 15:37:00,66.4,55.5,29.07,WSW,246,4.0,10.1,68,0.00,,OVC044,0.00,VWS V14.01,2013-09-03 19:37:00,
2013-09-03 15:42:00,66.4,55.5,29.07,WSW,249,10.1,10.5,68,0.00,,OVC044,0.00,VWS V14.01,2013-09-03 19:42:00,
2013-09-03 15:47:00,67.1,57.0,29.07,SW,214,3.6,6.3,70,0.00,,OVC044,0.00,VWS V14.01,2013-09-03 19:47:00,
2013-09-03 15:52:00,66.7,55.8,29.07,NW,325,3.1,8.7,68,0.00,,OVC044,0.00,VWS V14.01,2013-09-03 19:52:00,
2013-09-03 15:57:00,66.6,55.7,29.07,SW,232,6.3,15.0,68,0.00,,OVC044,0.00,VWS V14.01,2013-09-03 19:57:00,
2013-09-03 16:02:00,66.9,56.8,29.07,WNW,282,5.4,10.5,70,0.00,,OVC044,0.00,VWS V14.01,2013-09-03 20:02:00,
2013-09-03 16:07:00,66.9,56.4,29.07,SW,215,7.2,8.7,69,0.00,,OVC044,0.00,VWS V14.01,2013-09-03 20:07:00,
2013-09-03 16:12:00,66.6,55.7,29.10,SW,215,2.7,8.3,68,0.00,,OVC044,0.00,VWS V14.01,2013-09-03 20:12:00,
2013-09-03 16:17:00,66.6,55.3,29.10,West,265,3.1,11.0,67,0.00,,OVC044,0.00,VWS V14.01,2013-09-03 20:17:00,
2013-09-03 16:22:00,66.4,55.1,29.10,WNW,288,10.5,10.5,67,0.00,,OVC044,0.00,VWS V14.01,2013-09-03 20:22:00,
2013-09-03 16:27:00,66.6,55.7,29.10,SW,225,3.6,8.1,68,0.00,,OVC044,0.00,VWS V14.01,2013-09-03 20:27:00,
2013-09-03 16:32:00,66.4,55.5,29.10,WNW,282,3.1,10.1,68,0.00,,OVC044,0.00,VWS V14.01,2013-09-03 20:32:00,
2013-09-03 16:37:00,66.4,55.5,29.10,South,187,4.5,11.0,68,0.00,,BKN044,0.00,VWS V14.01,2013-09-03 20:37:00,
2013-09-03 16:42:00,66.4,55.1,29.10,West,277,3.6,13.2,67,0.00,,BKN044,0.00,VWS V14.01,2013-09-03 20:42:00,
2013-09-03 16:47:00,66.2,55.3,29.10,WSW,250,2.7,12.3,68,0.00,,BKN044,0.00,VWS V14.01,2013-09-03 20:47:00,
2013-09-03 16:52:00,66.2,55.3,29.10,NW,322,6.3,8.7,68,0.00,,BKN044,0.00,VWS V14.01,2013-09-03 20:52:00,
2013-09-03 16:57:00,66.0,55.2,29.10,West,276,5.8,12.8,68,0.00,,BKN044,0.00,VWS V14.01,2013-09-03 20:57:00,
2013-09-03 17:02:00,65.8,55.0,29.10,SW,222,6.3,8.3,68,0.00,,BKN044,0.00,VWS V14.01,2013-09-03 21:02:00,
2013-09-03 17:07:00,65.8,55.4,29.10,NNW,333,2.7,9.2,69,0.00,,BKN044,0.00,VWS V14.01,2013-09-03 21:07:00,
2013-09-03 17:12:00,65.7,55.2,29.10,West,281,5.4,8.7,69,0.00,,BKN044,0.00,VWS V14.01,2013-09-03 21:12:00,
2013-09-03 17:17:00,66.0,56.0,29.10,SSW,206,2.2,7.6,70,0.00,,BKN044,0.00,VWS V14.01,2013-09-03 21:17:00,
2013-09-03 17:22:00,65.8,55.8,29.07,NW,320,3.6,11.0,70,0.00,,BKN044,0.00,VWS V14.01,2013-09-03 21:22:00,
2013-09-03 17:27:00,65.7,55.6,29.07,SW,236,7.2,9.2,70,0.00,,BKN044,0.00,VWS V14.01,2013-09-03 21:27:00,
2013-09-03 17:32:00,65.8,56.2,29.07,West,278,4.0,6.3,71,0.00,,BKN044,0.00,VWS V14.01,2013-09-03 21:32:00,
2013-09-03 17:37:00,65.8,56.2,29.10,WSW,243,4.0,8.1,71,0.00,,OVC045,0.00,VWS V14.01,2013-09-03 21:37:00,
2013-09-03 17:42:00,65.8,56.2,29.10,South,180,0.0,10.5,71,0.00,,OVC045,0.00,VWS V14.01,2013-09-03 21:42:00,
2013-09-03 17:47:00,65.8,56.2,29.10,WNW,301,8.1,8.1,71,0.00,,OVC045,0.00,VWS V14.01,2013-09-03 21:47:00,
2013-09-03 17:52:00,65.7,56.0,29.10,SW,236,4.9,8.1,71,0.00,,OVC045,0.00,VWS V14.01,2013-09-03 21:52:00,
2013-09-03 17:57:00,65.7,56.0,29.10,SW,223,2.7,7.6,71,0.00,,OVC045,0.00,VWS V14.01,2013-09-03 21:57:00,
2013-09-03 18:02:00,65.5,55.8,29.10,SSW,206,0.0,8.7,71,0.00,,OVC045,0.00,VWS V14.01,2013-09-03 22:02:00,
2013-09-03 18:07:00,65.5,55.8,29.10,WNW,301,2.7,8.3,71,0.00,,OVC045,0.00,VWS V14.01,2013-09-03 22:07:00,
2013-09-03 18:12:00,65.3,55.7,29.10,West,259,5.8,7.6,71,0.00,,OVC045,0.00,VWS V14.01,2013-09-03 22:12:00,
2013-09-03 18:17:00,65.5,56.2,29.10,WSW,238,3.1,11.0,72,0.00,,OVC045,0.00,VWS V14.01,2013-09-03 22:17:00,
2013-09-03 18:22:00,65.5,56.2,29.10,SW,227,3.1,8.7,72,0.00,,OVC045,0.00,VWS V14.01,2013-09-03 22:22:00,
2013-09-03 18:27:00,65.3,56.0,29.10,WSW,253,3.6,8.3,72,0.00,,OVC045,0.00,VWS V14.01,2013-09-03 22:27:00,
2013-09-03 18:32:00,65.1,55.9,29.10,South,191,2.2,8.3,72,0.00,,OVC045,0.00,VWS V14.01,2013-09-03 22:32:00,
2013-09-03 18:37:00,65.1,55.9,29.10,SSW,209,4.0,8.7,72,0.00,,OVC045,0.00,VWS V14.01,2013-09-03 22:37:00,
2013-09-03 18:42:00,65.1,56.3,29.10,WSW,239,6.3,8.1,73,0.00,,OVC045,0.00,VWS V14.01,2013-09-03 22:42:00,
2013-09-03 18:47:00,64.9,56.1,29.10,SW,235,4.9,6.3,73,0.00,,OVC045,0.00,VWS V14.01,2013-09-03 22:47:00,
2013-09-03 18:52:00,64.9,56.1,29.10,South,191,3.6,6.3,73,0.00,,OVC045,0.00,VWS V14.01,2013-09-03 22:52:00,
2013-09-03 18:57:00,65.1,56.3,29.10,WNW,287,4.9,5.8,73,0.00,,OVC045,0.00,VWS V14.01,2013-09-03 22:57:00,
2013-09-03 19:03:00,64.9,56.1,29.10,SSW,212,4.9,8.3,73,0.00,,OVC045,0.00,VWS V14.01,2013-09-03 23:03:00,
2013-09-03 19:08:00,64.9,56.1,29.10,West,265,2.7,8.3,73,0.00,,OVC045,0.00,VWS V14.01,2013-09-03 23:08:00,
2013-09-03 19:13:00,64.9,56.1,29.10,SSW,207,5.8,8.1,73,0.00,,OVC045,0.00,VWS V14.01,2013-09-03 23:13:00,
2013-09-03 19:18:00,64.9,56.1,29.10,WSW,246,5.4,5.4,73,0.00,,OVC045,0.00,VWS V14.01,2013-09-03 23:18:00,
2013-09-03 19:23:00,64.8,55.9,29.10,SW,235,0.0,6.3,73,0.00,,OVC045,0.00,VWS V14.01,2013-09-03 23:23:00,
2013-09-03 19:28:00,64.8,55.9,29.10,West,262,7.6,7.6,73,0.00,,OVC045,0.00,VWS V14.01,2013-09-03 23:28:00,
2013-09-03 19:33:00,64.6,55.7,29.10,WSW,246,3.1,4.9,73,0.00,,OVC045,0.00,VWS V14.01,2013-09-03 23:33:00,
2013-09-03 19:38:00,64.6,55.7,29.13,SSW,197,2.7,7.6,73,0.00,,BKN047,0.00,VWS V14.01,2013-09-03 23:38:00,
2013-09-03 19:43:00,64.6,55.7,29.13,SW,223,5.8,6.3,73,0.00,,BKN047,0.00,VWS V14.01,2013-09-03 23:43:00,
2013-09-03 19:48:00,64.4,55.6,29.13,SW,214,4.0,7.6,73,0.00,,BKN047,0.00,VWS V14.01,2013-09-03 23:48:00,
2013-09-03 19:53:00,64.4,55.9,29.13,SSW,200,7.6,8.1,74,0.00,,BKN047,0.00,VWS V14.01,2013-09-03 23:53:00,
2013-09-03 19:58:00,64.4,55.9,29.13,SW,229,3.6,7.6,74,0.00,,BKN047,0.00,VWS V14.01,2013-09-03 23:58:00,
2013-09-03 20:03:00,64.2,55.8,29.13,SSW,204,4.0,6.3,74,0.00,,BKN047,0.00,VWS V14.01,2013-09-04 00:03:00,
2013-09-03 20:08:00,64.2,55.8,29.13,SW,233,4.0,6.3,74,0.00,,BKN047,0.00,VWS V14.01,2013-09-04 00:08:00,
2013-09-03 20:13:00,64.0,55.6,29.13,SW,236,2.2,2.2,74,0.00,,BKN047,0.00,VWS V14.01,2013-09-04 00:13:00,
2013-09-03 20:18:00,63.9,55.4,29.13,SW,219,5.4,5.4,74,0.00,,BKN047,0.00,VWS V14.01,2013-09-04 00:18:00,
2013-09-03 20:23:00,63.7,55.6,29.13,SW,230,3.1,8.1,75,0.00,,BKN047,0.00,VWS V14.01,2013-09-04 00:23:00,
2013-09-03 20:28:00,63.5,55.4,29.13,SSW,194,4.9,5.8,75,0.00,,BKN047,0.00,VWS V14.01,2013-09-04 00:28:00,
2013-09-03 20:33:00,63.3,55.3,29.13,WSW,241,4.9,5.4,75,0.00,,SCT048,0.00,VWS V14.01,2013-09-04 00:33:00,
2013-09-03 20:38:00,63.3,55.3,29.13,SW,228,3.6,4.9,75,0.00,,SCT048,0.00,VWS V14.01,2013-09-04 00:38:00,
2013-09-03 20:43:00,63.1,55.5,29.13,SW,220,3.6,5.4,76,0.00,,SCT048,0.00,VWS V14.01,2013-09-04 00:43:00,
2013-09-03 20:48:00,63.0,55.3,29.13,SSW,211,2.7,3.6,76,0.00,,SCT048,0.00,VWS V14.01,2013-09-04 00:48:00,
2013-09-03 20:53:00,62.8,55.1,29.13,West,262,3.6,3.6,76,0.00,,SCT048,0.00,VWS V14.01,2013-09-04 00:53:00,
2013-09-03 20:58:00,62.6,54.9,29.13,SSW,203,5.8,5.8,76,0.00,,SCT048,0.00,VWS V14.01,2013-09-04 00:58:00,
2013-09-03 21:03:00,62.6,55.3,29.13,SW,229,3.6,4.9,77,0.00,,SCT048,0.00,VWS V14.01,2013-09-04 01:03:00,
2013-09-03 21:08:00,62.4,55.1,29.15,SSW,209,3.1,3.1,77,0.00,,SCT048,0.00,VWS V14.01,2013-09-04 01:08:00,
2013-09-03 21:13:00,62.4,55.5,29.15,SW,228,3.1,4.9,78,0.00,,SCT048,0.00,VWS V14.01,2013-09-04 01:13:00,
2013-09-03 21:18:00,62.2,55.3,29.15,SW,233,5.8,6.3,78,0.00,,SCT048,0.00,VWS V14.01,2013-09-04 01:18:00,
2013-09-03 21:23:00,62.1,55.1,29.15,WSW,252,3.1,5.8,78,0.00,,SCT048,0.00,VWS V14.01,2013-09-04 01:23:00,
2013-09-03 21:28:00,62.1,55.1,29.15,SW,225,4.0,8.3,78,0.00,,SCT048,0.00,VWS V14.01,2013-09-04 01:28:00,
2013-09-03 21:33:00,61.9,55.0,29.15,SW,215,5.4,6.7,78,0.00,,SCT046,0.00,VWS V14.01,2013-09-04 01:33:00,
2013-09-03 21:38:00,61.9,55.0,29.13,SW,216,3.1,5.8,78,0.00,,SCT046,0.00,VWS V14.01,2013-09-04 01:38:00,
2013-09-03 21:43:00,61.7,54.8,29.13,WSW,241,5.4,6.3,78,0.00,,SCT046,0.00,VWS V14.01,2013-09-04 01:43:00,
2013-09-03 21:48:00,61.7,55.1,29.13,SW,229,6.3,6.3,79,0.00,,SCT046,0.00,VWS V14.01,2013-09-04 01:48:00,
2013-09-03 21:53:00,61.5,55.0,29.15,SSW,192,4.9,6.3,79,0.00,,SCT046,0.00,VWS V14.01,2013-09-04 01:53:00,
2013-09-03 21:58:00,61.5,55.0,29.15,SSW,197,5.8,5.8,79,0.00,,SCT046,0.00,VWS V14.01,2013-09-04 01:58:00,
2013-09-03 22:03:00,61.3,54.8,29.15,SW,230,4.0,5.4,79,0.00,,SCT046,0.00,VWS V14.01,2013-09-04 02:03:00,
2013-09-03 22:08:00,61.2,54.6,29.15,WSW,247,5.4,8.1,79,0.00,,SCT046,0.00,VWS V14.01,2013-09-04 02:08:00,
2013-09-03 22:14:00,61.2,54.6,29.15,SW,230,4.0,7.6,79,0.00,,SCT046,0.00,VWS V14.01,2013-09-04 02:14:00,
2013-09-03 22:19:00,61.0,54.4,29.15,SW,224,4.0,6.3,79,0.00,,SCT046,0.00,VWS V14.01,2013-09-04 02:19:00,
2013-09-03 22:24:00,61.0,54.4,29.15,SW,228,3.6,8.7,79,0.00,,SCT046,0.00,VWS V14.01,2013-09-04 02:24:00,
2013-09-03 22:29:00,61.0,54.4,29.15,WSW,244,5.4,8.1,79,0.00,,SCT046,0.00,VWS V14.01,2013-09-04 02:29:00,
2013-09-03 22:34:00,60.8,53.9,29.15,SSW,197,4.0,5.8,78,0.00,,SCT046,0.00,VWS V14.01,2013-09-04 02:34:00,
2013-09-03 22:39:00,60.8,53.9,29.15,WSW,237,4.0,5.8,78,0.00,,SCT046,0.00,VWS V14.01,2013-09-04 02:39:00,
2013-09-03 22:44:00,60.8,53.9,29.15,SSW,211,5.4,7.2,78,0.00,,SCT046,0.00,VWS V14.01,2013-09-04 02:44:00,
2013-09-03 22:49:00,60.6,53.7,29.15,South,173,5.8,8.7,78,0.00,,SCT046,0.00,VWS V14.01,2013-09-04 02:49:00,
2013-09-03 22:54:00,60.6,53.7,29.15,SW,223,6.3,6.3,78,0.00,,SCT046,0.00,VWS V14.01,2013-09-04 02:54:00,
2013-09-03 22:59:00,60.6,53.7,29.15,SSW,199,5.4,6.3,78,0.00,,SCT046,0.00,VWS V14.01,2013-09-04 02:59:00,
2013-09-03 23:04:00,60.4,53.6,29.15,West,270,6.7,6.7,78,0.00,,SCT044,0.00,VWS V14.01,2013-09-04 03:04:00,
2013-09-03 23:09:00,60.4,53.6,29.15,SW,232,8.3,8.3,78,0.00,,SCT044,0.00,VWS V14.01,2013-09-04 03:09:00,
2013-09-03 23:14:00,60.4,53.6,29.15,WNW,291,6.3,6.3,78,0.00,,SCT044,0.00,VWS V14.01,2013-09-04 03:14:00,
2013-09-03 23:19:00,60.3,53.4,29.15,SSW,206,4.9,10.5,78,0.00,,SCT044,0.00,VWS V14.01,2013-09-04 03:19:00,
2013-09-03 23:24:00,60.3,53.4,29.15,SSW,192,3.6,8.1,78,0.00,,SCT044,0.00,VWS V14.01,2013-09-04 03:24:00,
2013-09-03 23:29:00,60.1,53.2,29.15,WNW,294,3.6,7.6,78,0.00,,SCT044,0.00,VWS V14.01,2013-09-04 03:29:00,
2013-09-03 23:34:00,59.9,53.0,29.15,West,273,2.7,8.7,78,0.00,,FEW022,0.00,VWS V14.01,2013-09-04 03:34:00,
2013-09-03 23:39:00,59.9,53.0,29.15,SSW,199,2.7,5.4,78,0.00,,FEW022,0.00,VWS V14.01,2013-09-04 03:39:00,
2013-09-03 23:44:00,59.9,53.4,29.15,SW,230,5.8,6.3,79,0.00,,FEW022,0.00,VWS V14.01,2013-09-04 03:44:00,
2013-09-03 23:49:00,59.7,52.9,29.15,SSW,206,6.3,7.6,78,0.00,,FEW022,0.00,VWS V14.01,2013-09-04 03:49:00,
2013-09-03 23:54:00,59.7,53.2,29.15,SW,229,7.6,8.3,79,0.00,,FEW022,0.00,VWS V14.01,2013-09-04 03:54:00,
2013-09-03 23:59:00,59.7,53.2,29.15,SW,228,3.1,6.3,79,0.00,,FEW022,0.00,VWS V14.01,2013-09-04 03:59:00,